EW3286 Weather Reports


Display with metric or nautical units.
time (UTC)temp
F
wind
direction
speed
MPH
gust
MPH
rain 1hr
in
rain 24hr
in
rain mn
in
humidity
%
barometer
mb
20260509074516 48 146 0.0 0.0 0.00 0.00 0.00 53 1003.4
20260509073033 47 128 0.0 0.0 0.00 0.00 0.00 55 1003.4
20260509071514 46 129 0.0 0.0 0.00 0.00 0.00 58 1003.7
20260509070019 46 142 0.0 0.0 0.00 0.00 0.00 55 1003.9
20260509064507 46 142 0.0 0.0 0.00 0.00 0.00 55 1004.2
20260509063005 46 181 0.0 0.0 0.00 0.00 0.00 56 1004.5
20260509061502 47 181 0.0 0.0 0.00 0.00 0.00 56 1004.8
20260509060113 47 181 0.0 0.0 0.00 0.00 0.00 53 1004.8
20260509054555 48 180 0.0 0.0 0.00 0.00 0.00 52 1005.0
20260509053052 49 188 0.0 0.0 0.00 0.00 0.00 50 1004.9
20260509051549 51 205 0.0 0.0 0.00 0.00 0.00 48 1004.9
20260509050046 52 205 0.0 0.0 0.00 0.00 0.00 44 1005.1
20260509044541 52 205 0.0 0.0 0.00 0.00 0.00 44 1005.2
20260509043042 52 205 0.0 0.0 0.00 0.00 0.00 42 1005.4
20260509041541 54 191 0.0 0.0 0.00 0.00 0.00 41 1005.4
20260509040040 54 193 0.0 0.0 0.00 0.00 0.00 39 1005.4
20260509034540 55 219 0.0 0.0 0.00 0.00 0.00 40 1005.4
20260509033040 56 232 0.0 0.0 0.00 0.00 0.00 38 1005.4
20260509031539 57 238 0.0 0.0 0.00 0.00 0.00 37 1005.3
20260509030042 58 242 0.0 0.0 0.00 0.00 0.00 36 1005.1
20260509024540 59 240 0.0 0.0 0.00 0.00 0.00 34 1004.9
20260509023037 60 243 0.0 0.0 0.00 0.00 0.00 33 1004.7
20260509021539 61 247 0.0 0.0 0.00 0.00 0.00 32 1004.3
20260509020048 62 254 0.0 0.0 0.00 0.00 0.00 32 1004.0
20260509014545 64 234 0.0 0.0 0.00 0.00 0.00 31 1003.8
20260509013039 65 256 0.0 0.0 0.00 0.00 0.00 30 1003.8
20260509011634 66 225 0.0 0.0 0.00 0.00 0.00 30 1003.6
20260509010034 67 252 0.0 0.0 0.00 0.00 0.00 31 1003.6
20260509004533 68 243 0.0 0.0 0.00 0.00 0.00 31 1003.2
20260509003040 69 248 0.0 0.0 0.00 0.00 0.00 30 1003.1
20260509001532 69 211 0.0 0.0 0.00 0.00 0.00 31 1002.8
20260509000031 70 150 0.0 0.0 0.00 0.00 0.00 30 1002.8
20260508234532 71 228 0.0 0.0 0.00 0.00 0.00 27 1002.7
20260508233032 72 196 0.0 0.0 0.00 0.00 0.00 27 1002.5
20260508231530 73 209 0.0 0.0 0.00 0.00 0.00 26 1002.6
20260508230029 72 210 0.0 0.0 0.00 0.00 0.00 26 1002.7
20260508224532 73 192 0.0 0.0 0.00 0.00 0.00 26 1002.5
20260508223031 72 207 0.0 0.0 0.00 0.00 0.00 25 1002.7
20260508221527 73 190 0.0 0.0 0.00 0.00 0.00 24 1002.6
20260508220027 74 178 0.0 0.0 0.00 0.00 0.00 25 1002.6
20260508214526 73 183 0.0 0.0 0.00 0.00 0.00 22 1002.7
20260508213026 74 231 0.0 0.0 0.00 0.00 0.00 25 1002.7
20260508211521 74 175 0.0 0.0 0.00 0.00 0.00 24 1002.6
20260508210015 73 221 0.0 0.0 0.00 0.00 0.00 23 1002.9
20260508204513 73 188 0.0 0.0 0.00 0.00 0.00 25 1003.3
20260508203010 72 182 0.0 0.0 0.00 0.00 0.00 26 1003.5
20260508201508 73 180 0.0 0.0 0.00 0.00 0.00 26 1003.8
20260508200005 71 171 0.0 0.0 0.00 0.00 0.00 26 1003.9
20260508194501 72 201 0.0 0.0 0.00 0.00 0.00 28 1004.0
20260508193058 71 203 0.0 0.0 0.00 0.00 0.00 26 1004.4
20260508191554 72 182 0.0 0.0 0.00 0.00 0.00 26 1004.5
20260508190052 71 169 0.0 0.0 0.00 0.00 0.00 26 1004.6
20260508184549 71 167 0.0 0.0 0.00 0.00 0.00 26 1005.1
20260508183044 71 195 0.0 0.0 0.00 0.00 0.00 26 1005.1
20260508181554 70 191 0.0 0.0 0.00 0.00 0.00 28 1005.4
20260508180037 70 145 0.0 0.0 0.00 0.00 0.00 27 1005.8
20260508174539 69 212 0.0 0.0 0.00 0.00 0.00 27 1006.1
20260508173039 69 191 0.0 0.0 0.00 0.00 0.00 27 1006.3
20260508171527 68 226 0.0 0.0 0.00 0.00 0.00 29 1006.7
20260508170022 67 197 0.0 0.0 0.00 0.00 0.00 27 1007.0
20260508164519 67 161 0.0 0.0 0.00 0.00 0.00 28 1007.2
20260508163019 66 177 0.0 0.0 0.00 0.00 0.00 25 1007.4
20260508161511 66 155 0.0 0.0 0.00 0.00 0.00 28 1007.7
20260508160007 65 177 0.0 0.0 0.00 0.00 0.00 28 1007.8
20260508154505 65 160 0.0 0.0 0.00 0.00 0.00 30 1008.0
20260508153101 64 191 0.0 0.0 0.00 0.00 0.00 30 1008.1
20260508151556 63 172 0.0 0.0 0.00 0.00 0.00 29 1008.1
20260508150052 62 161 0.0 0.0 0.00 0.00 0.00 31 1008.3
20260508144549 60 140 0.0 0.0 0.00 0.00 0.00 34 1008.6
20260508143046 60 176 0.0 0.0 0.00 0.00 0.00 31 1008.8
20260508141610 60 146 0.0 0.0 0.00 0.00 0.00 31 1008.8
20260508140040 59 150 0.0 0.0 0.00 0.00 0.00 36 1008.8
20260508134550 57 169 0.0 0.0 0.00 0.00 0.00 37 1008.9
20260508133031 54 158 0.0 0.0 0.00 0.00 0.00 43 1008.8
20260508131527 53 148 0.0 0.0 0.00 0.00 0.00 45 1009.0
20260508130023 50 150 0.0 0.0 0.00 0.00 0.00 47 1009.2
20260508124521 50 123 0.0 0.0 0.00 0.00 0.00 47 1009.2
20260508123025 46 90 0.0 0.0 0.00 0.00 0.00 59 1009.0
20260508121512 44 225 0.0 0.0 0.00 0.00 0.00 61 1009.0
20260508120007 42 224 0.0 0.0 0.00 0.00 0.00 58 1009.1
20260508114506 42 254 0.0 0.0 0.00 0.00 0.00 57 1009.0
20260508113003 42 244 0.0 0.0 0.00 0.00 0.00 56 1009.1
20260508111604 42 244 0.0 0.0 0.00 0.00 0.00 56 1009.0
20260508104557 42 215 0.0 0.0 0.00 0.00 0.00 57 1009.0
20260508103056 42 215 0.0 0.0 0.00 0.00 0.00 57 1009.1
20260508101555 42 215 0.0 0.0 0.00 0.00 0.00 56 1009.3
20260508100054 41 215 0.0 0.0 0.00 0.00 0.00 55 1009.1
20260508094553 41 239 0.0 0.0 0.00 0.00 0.00 57 1009.2
20260508093055 41 239 0.0 0.0 0.00 0.00 0.00 58 1009.2
20260508091553 41 239 0.0 0.0 0.00 0.00 0.00 58 1009.1
20260508090049 41 239 0.0 0.0 0.00 0.00 0.00 59 1009.2
20260508084548 41 239 0.0 0.0 0.00 0.00 0.00 61 1009.2
20260508083105 41 239 0.0 0.0 0.00 0.00 0.00 58 1009.4
20260508081544 41 239 0.0 0.0 0.00 0.00 0.00 57 1009.4
20260508080043 41 239 0.0 0.0 0.00 0.00 0.00 57 1009.4